Location: Rounton
(54.4000°N, 1.3500°W)
Time: 03:06:50
(UTC+00:00)

SR - Pass Details

Date: 07 December 2021
Orbit: 582 x 872 km, 66.7° (Epoch: 26 January)

Event Time Altitude Azimuth Distance (km) Brightness Sun altitude
Exits shadow 07:25:40 - 311° (NW) 2,124 ? -6.3°
Reaches altitude 10° 07:26:11 10° 309° (NW) 1,926 ? -6.3°
Maximum altitude 07:30:15 43° 238° (WSW) 860 ? -5.7°
Drops below altitude 10° 07:34:29 10° 167° (SSE) 2,007 ? -5.2°
Sets 07:36:54 0° 161° (SSE) 2,952 ? -4.9°
